Meath Environmental Platform

Observations

Time Sensor AQI SAQ Temp °C Hum % Pres Pa CO μg/m³ H₂S μg/m³ NO μg/m³ NO₂ μg/m³ O₃ μg/m³ SO₂ μg/m³ CO₂e PPM VOC PPM PM1 μg/m³ PM2.5 μg/m³ PM4 μg/m³ PM10 μg/m³ TPS µm
Thursday 13 August 2026
06:07 Trim Patrick St 2 20.7 77 38,460 0 0.13 1.57 0.21 34.97 4.77 5.43 8.96 9.85
06:06 Trim Patrick St 2 20.7 76 38,460 0 4.53 1.56 17.23 24.49 2.98 6.29 10.41 11.45
06:05 Trim Patrick St 2 20.7 76 38,460 0 0.45 1.55 9.82 33.22 4.12 5.43 8.28 9.11
06:04 Trim Patrick St 2 20.7 77 38,460 0 1.4 1.54 11.67 30.81 3.49 6.29 10.39 11.43
06:04 Trim Market St 2 21.2 74 38,464 0 0 1.36 2.17 40.7 0 2.85 4.32 6.93
06:03 Trim Patrick St 2 20.7 77 38,460 0 0.66 1.53 3.93 34.09 4.66 4.57 8.23 9.06
06:03 Trim Market St 2 21.2 74 38,376 0 0 1.56 3.63 38.9 0 4.28 5.27 8.13
06:02 Trim Patrick St 2 20.7 77 38,460 0 3.09 1.71 13.73 25.79 3.83 4.57 8.23 9.05
06:02 Trim Market St 2 21.3 74 38,397 0 0 1.87 2.24 40.55 0 2.14 3.83 6.32
06:01 Trim Patrick St 2 20.7 77 38,460 0 2.85 1.75 14.58 24.86 4.39 5.43 8.94 9.83
06:01 Trim Market St 2 21.3 74 38,453 0 0 1.83 4.92 40.53 0 2.85 4.79 8.13
06:00 Trim Patrick St 2 20.7 77 38,460 0 0.48 1.69 9.69 29.87 4.14 4.57 7.53 8.28
05:59 Trim Patrick St 2 20.7 77 38,460 0 0.98 1.76 1.97 33.45 4.51 4.57 8.23 9.06
05:59 Trim Market St 2 21.3 74 38,762 0 0 1.71 17.51 29.74 0 2.14 3.84 6.32
05:58 Trim Patrick St 2 20.7 77 38,460 0 0.79 1.85 12.75 25.83 3.69 5.43 9.65 10.61
05:58 Trim Market St 2 21.3 74 38,843 0 0 1.62 2.72 40.44 0 3.56 4.8 8.13
05:57 Trim Patrick St 2 20.7 77 38,460 0 0.29 1.78 9.37 26.43 4.1 6.29 10.35 11.39
05:57 Trim Market St 2 21.3 74 38,901 0 0 1.26 3.2 39.02 0 0 1.91 3.91
05:56 Trim Patrick St 2 20.7 77 38,460 0 0 1.75 4.69 32.23 4.53 5.43 8.23 9.06
05:56 Trim Market St 2 21.3 74 38,962 0 0 1.29 3.21 40.8 0 2.85 5.28 8.13